| time (UTC) | temp C | wind direction | speed KPH | gust KPH | rain 1hr cm | rain 24hr cm | rain mn cm | humidity % | barometer mb |
| 20260502180122 | 19 | 15 | 12.9 | 25.7 | 0.00 | 0.00 | 0.00 | 28 | 988.2 |
| 20260502170122 | 18 | 358 | 11.3 | 14.5 | 0.00 | 0.00 | 0.00 | 28 | 988.8 |
| 20260502164125 | 16 | 305 | 14.5 | 19.3 | 0.00 | 0.00 | 0.00 | 31 | 988.9 |
| 20260502163122 | 17 | 10 | 11.3 | 20.9 | 0.00 | 0.00 | 0.00 | 29 | 989.0 |
| 20260502162122 | 17 | 17 | 16.1 | 25.7 | 0.00 | 0.00 | 0.00 | 29 | 988.9 |
| 20260502161122 | 16 | 332 | 14.5 | 20.9 | 0.00 | 0.00 | 0.00 | 34 | 988.9 |
| 20260501223123 | 21 | 324 | 16.1 | 19.3 | 0.00 | 0.00 | 0.00 | 28 | 983.1 |
| 20260501222123 | 22 | 312 | 12.9 | 19.3 | 0.00 | 0.00 | 0.00 | 25 | 983.0 |
| 20260501221126 | 22 | 34 | 8.0 | 12.9 | 0.00 | 0.00 | 0.00 | 25 | 983.0 |
| 20260501220144 | 22 | 35 | 9.7 | 12.9 | 0.00 | 0.00 | 0.00 | 25 | 983.2 |
| 20260501215144 | 21 | 317 | 12.9 | 19.3 | 0.00 | 0.00 | 0.00 | 27 | 983.2 |
| 20260501214125 | 22 | 291 | 12.9 | 20.9 | 0.00 | 0.00 | 0.00 | 27 | 983.5 |
| 20260501213124 | 22 | 288 | 11.3 | 16.1 | 0.00 | 0.00 | 0.00 | 26 | 983.7 |
| 20260501212123 | 21 | 297 | 12.9 | 20.9 | 0.00 | 0.00 | 0.00 | 29 | 983.9 |
| 20260501211126 | 22 | 344 | 12.9 | 24.1 | 0.00 | 0.00 | 0.00 | 25 | 983.9 |
| 20260501210123 | 21 | 308 | 20.9 | 29.0 | 0.00 | 0.00 | 0.00 | 27 | 984.2 |
| 20260501205123 | 22 | 299 | 12.9 | 20.9 | 0.00 | 0.00 | 0.00 | 28 | 984.5 |
| 20260501204126 | 20 | 306 | 14.5 | 24.1 | 0.00 | 0.00 | 0.00 | 29 | 984.7 |
| 20260501203124 | 21 | 311 | 11.3 | 17.7 | 0.00 | 0.00 | 0.00 | 26 | 985.0 |
| 20260501202123 | 20 | 306 | 4.8 | 9.7 | 0.00 | 0.00 | 0.00 | 28 | 985.1 |
| 20260501201147 | 20 | 308 | 14.5 | 24.1 | 0.00 | 0.00 | 0.00 | 28 | 985.1 |
| 20260501200123 | 19 | 325 | 17.7 | 25.7 | 0.00 | 0.00 | 0.00 | 29 | 985.2 |
| 20260501195123 | 20 | 295 | 8.0 | 17.7 | 0.00 | 0.00 | 0.00 | 27 | 985.5 |
| 20260501194126 | 20 | 289 | 16.1 | 19.3 | 0.00 | 0.00 | 0.00 | 28 | 985.5 |
| 20260501193123 | 22 | 293 | 11.3 | 17.7 | 0.00 | 0.00 | 0.00 | 28 | 985.6 |
| 20260501192144 | 21 | 293 | 12.9 | 20.9 | 0.00 | 0.00 | 0.00 | 25 | 985.6 |
| 20260501191123 | 22 | 299 | 11.3 | 25.7 | 0.00 | 0.00 | 0.00 | 25 | 985.6 |
| 20260501190126 | 21 | 308 | 12.9 | 19.3 | 0.00 | 0.00 | 0.00 | 25 | 985.7 |
| 20260501185144 | 21 | 28 | 12.9 | 19.3 | 0.00 | 0.00 | 0.00 | 25 | 985.7 |
| 20260501184123 | 21 | 346 | 12.9 | 22.5 | 0.00 | 0.00 | 0.00 | 25 | 985.7 |
| 20260501183125 | 20 | 293 | 11.3 | 19.3 | 0.00 | 0.00 | 0.00 | 25 | 985.8 |
| 20260501182123 | 20 | 311 | 16.1 | 27.4 | 0.00 | 0.00 | 0.00 | 25 | 985.8 |
| 20260501181123 | 21 | 290 | 11.3 | 20.9 | 0.00 | 0.00 | 0.00 | 25 | 985.8 |